Time,TemperatureF,DewpointF,PressureIn,WindDirection,WindDirectionDegrees,WindSpeedMPH,WindSpeedGustMPH,Humidity,HourlyPrecipIn,Conditions,Clouds,dailyrainin,SolarRadiationWatts/m^2,SoftwareType,DateUTC
2013-05-09 00:03:00,77.0,58.6,29.94,SSE,158,8.1,8.1,53,0.00,CLR,,0.00,70.0,WeatherDisplay:10.37,2013-05-09 05:03:00,
2013-05-09 00:08:00,77.0,58.6,29.93,SSE,158,6.9,6.9,53,0.00,CLR,,0.00,70.0,WeatherDisplay:10.37,2013-05-09 05:08:00,
2013-05-09 00:13:00,76.6,58.2,29.93,SSE,158,8.1,8.1,53,0.00,CLR,,0.00,60.0,WeatherDisplay:10.37,2013-05-09 05:13:00,
2013-05-09 00:18:00,76.5,58.1,29.93,ESE,112,6.9,6.9,53,0.00,CLR,,0.00,60.0,WeatherDisplay:10.37,2013-05-09 05:18:00,
2013-05-09 00:23:00,76.3,57.9,29.93,SSE,158,10.4,10.4,53,0.00,CLR,,0.00,60.0,WeatherDisplay:10.37,2013-05-09 05:23:00,
2013-05-09 00:28:00,76.3,57.9,29.94,SSE,158,6.9,6.9,53,0.00,CLR,,0.00,70.0,WeatherDisplay:10.37,2013-05-09 05:28:00,
2013-05-09 00:34:00,75.9,57.6,29.94,SE,135,8.1,8.1,53,0.00,CLR,,0.00,50.0,WeatherDisplay:10.37,2013-05-09 05:34:00,
2013-05-09 00:39:00,75.9,57.6,29.94,SSE,158,8.1,8.1,53,0.00,CLR,,0.00,40.0,WeatherDisplay:10.37,2013-05-09 05:39:00,
2013-05-09 00:44:00,75.7,57.9,29.94,SW,225,4.6,4.6,54,0.00,CLR,,0.00,50.0,WeatherDisplay:10.37,2013-05-09 05:44:00,
2013-05-09 00:49:00,75.6,57.7,29.94,SE,135,6.9,6.9,54,0.00,CLR,,0.00,40.0,WeatherDisplay:10.37,2013-05-09 05:49:00,
2013-05-09 00:55:00,75.4,57.6,29.94,South,180,5.8,5.8,54,0.00,CLR,,0.00,30.0,WeatherDisplay:10.37,2013-05-09 05:55:00,
2013-05-09 01:00:00,75.0,57.2,29.94,ESE,112,5.8,5.8,54,0.00,CLR,,0.00,40.0,WeatherDisplay:10.37,2013-05-09 06:00:00,
2013-05-09 01:05:00,75.0,57.2,29.94,SSE,158,4.6,4.6,54,0.00,CLR,,0.00,30.0,WeatherDisplay:10.37,2013-05-09 06:05:00,
2013-05-09 01:10:00,74.7,56.9,29.93,South,180,4.6,4.6,54,0.00,CLR,,0.00,30.0,WeatherDisplay:10.37,2013-05-09 06:10:00,
2013-05-09 01:15:00,74.5,56.7,29.93,North,0,8.1,8.1,54,0.00,CLR,,0.00,30.0,WeatherDisplay:10.37,2013-05-09 06:15:00,
2013-05-09 01:20:00,74.5,57.3,29.93,SW,225,6.1,6.1,55,0.00,CLR,,0.00,30.0,WeatherDisplay:10.37,2013-05-09 06:20:00,
2013-05-09 01:26:00,74.1,56.9,29.93,SSE,158,4.9,4.9,55,0.00,CLR,,0.00,20.0,WeatherDisplay:10.37,2013-05-09 06:26:00,
2013-05-09 01:31:00,74.3,57.1,29.93,SE,135,8.1,8.1,55,0.00,CLR,,0.00,20.0,WeatherDisplay:10.37,2013-05-09 06:31:00,
2013-05-09 01:36:00,73.9,57.3,29.93,SE,135,6.9,6.9,56,0.00,CLR,,0.00,20.0,WeatherDisplay:10.37,2013-05-09 06:36:00,
2013-05-09 01:41:00,73.9,57.3,29.93,SE,135,6.9,6.9,56,0.00,CLR,,0.00,20.0,WeatherDisplay:10.37,2013-05-09 06:41:00,
2013-05-09 01:47:00,73.6,56.9,29.93,SW,225,9.2,9.2,56,0.00,CLR,,0.00,0.0,WeatherDisplay:10.37,2013-05-09 06:47:00,
2013-05-09 01:52:00,73.4,57.2,29.93,WSW,248,5.8,5.8,57,0.00,CLR,,0.00,20.0,WeatherDisplay:10.37,2013-05-09 06:52:00,
2013-05-09 01:57:00,73.6,57.4,29.93,SE,135,2.6,4.5,57,0.00,CLR,,0.00,30.0,WeatherDisplay:10.37,2013-05-09 06:57:00,
2013-05-09 02:02:00,73.2,57.1,29.93,SSE,158,6.9,6.9,57,0.00,CLR,,0.00,10.0,WeatherDisplay:10.37,2013-05-09 07:02:00,
2013-05-09 02:08:00,73.0,57.4,29.93,SE,135,10.4,10.4,58,0.00,CLR,,0.00,10.0,WeatherDisplay:10.37,2013-05-09 07:08:00,
2013-05-09 02:13:00,73.0,57.4,29.93,SE,135,11.5,11.5,58,0.00,CLR,,0.00,20.0,WeatherDisplay:10.37,2013-05-09 07:13:00,
2013-05-09 02:18:00,72.9,57.7,29.93,SW,225,10.4,10.4,59,0.00,CLR,,0.00,10.0,WeatherDisplay:10.37,2013-05-09 07:18:00,
2013-05-09 02:23:00,72.7,58.0,29.93,South,180,10.4,10.4,60,0.00,CLR,,0.00,20.0,WeatherDisplay:10.37,2013-05-09 07:23:00,
2013-05-09 02:28:00,72.5,57.8,29.92,ESE,112,6.9,6.9,60,0.00,CLR,,0.00,20.0,WeatherDisplay:10.37,2013-05-09 07:28:00,
2013-05-09 02:34:00,72.5,58.3,29.92,SSE,158,8.1,8.1,61,0.00,CLR,,0.00,20.0,WeatherDisplay:10.37,2013-05-09 07:34:00,
2013-05-09 02:39:00,72.3,58.6,29.92,SSE,158,8.1,8.1,62,0.00,CLR,,0.00,10.0,WeatherDisplay:10.37,2013-05-09 07:39:00,
2013-05-09 02:44:00,72.1,58.4,29.92,ENE,68,6.9,6.9,62,0.00,CLR,,0.00,0.0,WeatherDisplay:10.37,2013-05-09 07:44:00,
2013-05-09 02:49:00,72.1,58.4,29.92,SSE,158,12.9,12.9,62,0.00,CLR,,0.00,0.0,WeatherDisplay:10.37,2013-05-09 07:49:00,
2013-05-09 02:54:00,71.8,58.1,29.92,West,270,5.8,5.8,62,0.00,CLR,,0.00,0.0,WeatherDisplay:10.37,2013-05-09 07:54:00,
2013-05-09 03:00:00,71.8,58.5,29.92,SW,225,1.2,3.8,63,0.00,CLR,,0.00,0.0,WeatherDisplay:10.37,2013-05-09 08:00:00,
2013-05-09 03:05:00,71.8,58.5,29.92,SSW,202,8.1,8.1,63,0.00,CLR,,0.00,10.0,WeatherDisplay:10.37,2013-05-09 08:05:00,
2013-05-09 03:10:00,71.8,58.5,29.93,SSW,202,8.1,8.1,63,0.00,CLR,,0.00,10.0,WeatherDisplay:10.37,2013-05-09 08:10:00,
2013-05-09 03:15:00,71.2,58.4,29.93,ESE,112,6.9,6.9,64,0.00,CLR,,0.00,0.0,WeatherDisplay:10.37,2013-05-09 08:15:00,
2013-05-09 03:21:00,71.2,58.9,29.93,SE,135,4.6,4.6,65,0.00,CLR,,0.00,0.0,WeatherDisplay:10.37,2013-05-09 08:21:00,
2013-05-09 03:26:00,71.1,58.7,29.93,North,0,6.9,6.9,65,0.00,CLR,,0.00,0.0,WeatherDisplay:10.37,2013-05-09 08:26:00,
2013-05-09 03:31:00,70.9,59.0,29.93,South,180,10.4,10.4,66,0.00,CLR,,0.00,0.0,WeatherDisplay:10.37,2013-05-09 08:31:00,
2013-05-09 03:36:00,70.9,59.0,29.93,SE,135,13.6,13.6,66,0.00,CLR,,0.00,0.0,WeatherDisplay:10.37,2013-05-09 08:36:00,
2013-05-09 03:41:00,70.7,59.6,29.93,SSE,158,8.1,8.1,68,0.00,CLR,,0.00,0.0,WeatherDisplay:10.37,2013-05-09 08:41:00,
2013-05-09 03:47:00,70.7,59.6,29.93,SSE,158,5.2,5.9,68,0.00,CLR,,0.00,0.0,WeatherDisplay:10.37,2013-05-09 08:47:00,
2013-05-09 03:52:00,70.7,59.6,29.92,South,180,9.2,9.2,68,0.00,CLR,,0.00,0.0,WeatherDisplay:10.37,2013-05-09 08:52:00,
2013-05-09 03:57:00,70.3,59.7,29.92,SSE,158,6.9,6.9,69,0.00,CLR,,0.00,0.0,WeatherDisplay:10.37,2013-05-09 08:57:00,
2013-05-09 04:02:00,70.2,59.9,29.92,SE,135,6.9,6.9,70,0.00,CLR,,0.00,0.0,WeatherDisplay:10.37,2013-05-09 09:02:00,
2013-05-09 04:08:00,70.2,60.3,29.92,SE,135,5.8,5.8,71,0.00,CLR,,0.00,0.0,WeatherDisplay:10.37,2013-05-09 09:08:00,
2013-05-09 04:13:00,70.2,60.3,29.92,SE,135,5.8,5.8,71,0.00,CLR,,0.00,0.0,WeatherDisplay:10.37,2013-05-09 09:13:00,
2013-05-09 04:18:00,70.0,60.5,29.92,SE,135,3.5,3.7,72,0.00,CLR,,0.00,0.0,WeatherDisplay:10.37,2013-05-09 09:18:00,
2013-05-09 04:23:00,70.0,60.5,29.92,SSE,158,6.9,6.9,72,0.00,CLR,,0.00,0.0,WeatherDisplay:10.37,2013-05-09 09:23:00,
2013-05-09 04:28:00,70.0,60.5,29.94,NE,45,5.8,5.8,72,0.00,CLR,,0.00,0.0,WeatherDisplay:10.37,2013-05-09 09:28:00,
2013-05-09 04:34:00,70.0,60.9,29.94,SE,135,3.5,3.5,73,0.00,CLR,,0.00,0.0,WeatherDisplay:10.37,2013-05-09 09:34:00,
2013-05-09 04:39:00,70.0,60.9,29.94,SSE,158,8.1,8.1,73,0.00,CLR,,0.00,0.0,WeatherDisplay:10.37,2013-05-09 09:39:00,
2013-05-09 04:44:00,70.0,60.9,29.94,SSE,158,5.8,5.8,73,0.00,CLR,,0.00,0.0,WeatherDisplay:10.37,2013-05-09 09:44:00,
2013-05-09 04:50:00,69.8,61.1,29.93,ESE,112,4.6,4.6,74,0.00,CLR,,0.00,0.0,WeatherDisplay:10.37,2013-05-09 09:50:00,
2013-05-09 04:55:00,69.8,61.1,29.93,WSW,248,5.8,5.8,74,0.00,CLR,,0.00,0.0,WeatherDisplay:10.37,2013-05-09 09:55:00,
2013-05-09 05:00:00,69.8,61.1,29.93,South,180,8.1,8.1,74,0.00,CLR,,0.00,0.0,WeatherDisplay:10.37,2013-05-09 10:00:00,
2013-05-09 05:05:00,70.0,61.7,29.93,SSE,158,2.3,2.9,75,0.00,CLR,,0.00,0.0,WeatherDisplay:10.37,2013-05-09 10:05:00,
2013-05-09 05:10:00,70.0,61.7,29.95,SE,135,6.9,6.9,75,0.00,CLR,,0.00,0.0,WeatherDisplay:10.37,2013-05-09 10:10:00,
2013-05-09 05:15:00,70.0,61.7,29.95,SSW,202,2.3,2.3,75,0.00,CLR,,0.00,0.0,WeatherDisplay:10.37,2013-05-09 10:15:00,
2013-05-09 05:20:00,69.8,61.5,29.95,SSW,202,4.6,4.6,75,0.00,CLR,,0.00,0.0,WeatherDisplay:10.37,2013-05-09 10:20:00,
2013-05-09 05:26:00,70.0,61.7,29.95,SE,135,3.8,3.8,75,0.00,CLR,,0.00,0.0,WeatherDisplay:10.37,2013-05-09 10:26:00,
2013-05-09 05:31:00,69.8,61.5,29.94,SSE,158,2.3,2.8,75,0.00,CLR,,0.00,0.0,WeatherDisplay:10.37,2013-05-09 10:31:00,
2013-05-09 05:36:00,70.0,61.7,29.94,South,180,3.5,3.5,75,0.00,CLR,,0.00,0.0,WeatherDisplay:10.37,2013-05-09 10:36:00,
2013-05-09 05:41:00,70.0,62.1,29.94,SSE,158,2.3,2.6,76,0.00,CLR,,0.00,0.0,WeatherDisplay:10.37,2013-05-09 10:41:00,
2013-05-09 05:47:00,70.0,62.1,29.94,SSE,158,2.6,2.6,76,0.00,CLR,,0.00,0.0,WeatherDisplay:10.37,2013-05-09 10:47:00,
2013-05-09 05:52:00,70.0,62.1,29.94,SSE,158,3.5,3.5,76,0.00,CLR,,0.00,0.0,WeatherDisplay:10.37,2013-05-09 10:52:00,
2013-05-09 05:57:00,70.0,62.4,29.94,SSE,158,2.3,2.3,77,0.00,CLR,,0.00,0.0,WeatherDisplay:10.37,2013-05-09 10:57:00,
2013-05-09 06:02:00,70.0,62.4,29.94,SSE,158,6.9,6.9,77,0.00,CLR,,0.00,0.0,WeatherDisplay:10.37,2013-05-09 11:02:00,
2013-05-09 06:07:00,70.0,62.4,29.94,SSE,158,5.8,5.8,77,0.00,OVC,,0.00,0.0,WeatherDisplay:10.37,2013-05-09 11:07:00,
2013-05-09 06:13:00,70.0,62.4,29.94,SE,135,4.6,4.6,77,0.00,OVC,,0.00,0.0,WeatherDisplay:10.37,2013-05-09 11:13:00,
2013-05-09 06:18:00,70.0,62.4,29.94,SE,135,4.9,4.9,77,0.00,OVC,,0.00,0.0,WeatherDisplay:10.37,2013-05-09 11:18:00,
2013-05-09 06:23:00,70.0,62.4,29.94,NW,315,6.9,6.9,77,0.00,OVC,,0.00,0.0,WeatherDisplay:10.37,2013-05-09 11:23:00,
2013-05-09 06:28:00,70.0,62.8,29.94,SE,135,3.6,3.6,78,0.00,OVC,,0.00,0.0,WeatherDisplay:10.37,2013-05-09 11:28:00,
2013-05-09 06:33:00,70.0,62.8,29.94,East,90,2.3,3.5,78,0.00,OVC,,0.00,0.0,WeatherDisplay:10.37,2013-05-09 11:33:00,
2013-05-09 06:38:00,69.8,62.6,29.94,SSE,158,5.2,5.2,78,0.00,OVC,,0.00,0.0,WeatherDisplay:10.37,2013-05-09 11:38:00,
2013-05-09 06:44:00,70.0,62.8,29.94,SE,135,2.3,3.3,78,0.00,OVC,,0.00,0.0,WeatherDisplay:10.37,2013-05-09 11:44:00,
2013-05-09 06:49:00,69.8,62.6,29.95,SSE,158,2.3,3.1,78,0.00,OVC,,0.00,0.0,WeatherDisplay:10.37,2013-05-09 11:49:00,
2013-05-09 06:54:00,70.0,62.8,29.95,SSE,158,4.6,4.6,78,0.00,OVC,,0.00,0.0,WeatherDisplay:10.37,2013-05-09 11:54:00,
2013-05-09 06:59:00,70.0,62.8,29.95,SE,135,3.5,3.5,78,0.00,OVC,,0.00,0.0,WeatherDisplay:10.37,2013-05-09 11:59:00,
2013-05-09 07:04:00,70.0,63.2,29.95,SSE,158,8.1,8.1,79,0.00,OVC,,0.00,0.0,WeatherDisplay:10.37,2013-05-09 12:04:00,
2013-05-09 07:09:00,70.0,63.2,29.95,SE,135,1.2,3.3,79,0.00,OVC,,0.00,0.0,WeatherDisplay:10.37,2013-05-09 12:09:00,
2013-05-09 07:14:00,69.8,63.0,29.95,SE,135,2.3,3.0,79,0.00,OVC,,0.00,10.0,WeatherDisplay:10.37,2013-05-09 12:14:00,
2013-05-09 07:20:00,70.0,63.5,29.95,SE,135,5.8,5.8,80,0.00,OVC,,0.00,40.0,WeatherDisplay:10.37,2013-05-09 12:20:00,
2013-05-09 07:25:00,70.0,63.5,29.95,SSE,158,2.8,2.8,80,0.00,OVC,,0.00,70.0,WeatherDisplay:10.37,2013-05-09 12:25:00,
2013-05-09 07:30:00,69.8,63.3,29.95,SE,135,5.8,5.8,80,0.00,OVC,,0.00,120.0,WeatherDisplay:10.37,2013-05-09 12:30:00,
2013-05-09 07:35:00,70.0,63.5,29.95,South,180,0.0,2.6,80,0.00,OVC,,0.00,140.0,WeatherDisplay:10.37,2013-05-09 12:35:00,
2013-05-09 07:40:00,70.0,63.5,29.95,SW,225,3.5,3.5,80,0.00,OVC,,0.00,160.0,WeatherDisplay:10.37,2013-05-09 12:40:00,
2013-05-09 07:46:00,70.0,63.5,29.95,South,180,9.2,9.2,80,0.00,OVC,,0.00,170.0,WeatherDisplay:10.37,2013-05-09 12:46:00,
2013-05-09 07:51:00,70.0,63.5,29.95,SW,225,2.3,2.6,80,0.00,OVC,,0.00,170.0,WeatherDisplay:10.37,2013-05-09 12:51:00,
2013-05-09 07:56:00,70.0,63.5,29.95,South,180,3.5,3.5,80,0.00,OVC,,0.00,180.0,WeatherDisplay:10.37,2013-05-09 12:56:00,
2013-05-09 08:01:00,70.0,63.5,29.95,SSE,158,4.6,4.6,80,0.00,OVC,,0.00,180.0,WeatherDisplay:10.37,2013-05-09 13:01:00,
2013-05-09 08:06:00,70.0,63.5,29.95,SSW,202,3.5,3.5,80,0.00,OVC,,0.00,210.0,WeatherDisplay:10.37,2013-05-09 13:06:00,
2013-05-09 08:11:00,70.0,63.5,29.97,SSE,158,5.9,5.9,80,0.00,OVC,,0.00,210.0,WeatherDisplay:10.37,2013-05-09 13:11:00,
2013-05-09 08:16:00,70.0,63.5,29.97,ESE,112,2.3,2.9,80,0.00,OVC,,0.00,210.0,WeatherDisplay:10.37,2013-05-09 13:16:00,
2013-05-09 08:21:00,70.0,63.5,29.97,SSE,158,3.5,3.5,80,0.00,OVC,,0.00,210.0,WeatherDisplay:10.37,2013-05-09 13:21:00,
2013-05-09 08:27:00,70.0,63.5,29.97,ESE,112,4.6,4.6,80,0.00,OVC,,0.00,230.0,WeatherDisplay:10.37,2013-05-09 13:27:00,
2013-05-09 08:32:00,70.0,63.5,29.96,SSE,158,5.8,5.8,80,0.00,OVC,,0.00,250.0,WeatherDisplay:10.37,2013-05-09 13:32:00,
2013-05-09 08:37:00,70.0,63.5,29.96,SE,135,4.6,4.6,80,0.00,OVC,,0.00,240.0,WeatherDisplay:10.37,2013-05-09 13:37:00,
2013-05-09 08:42:00,70.0,63.5,29.96,SE,135,4.6,4.6,80,0.00,OVC,,0.00,210.0,WeatherDisplay:10.37,2013-05-09 13:42:00,
2013-05-09 08:48:00,70.0,63.5,29.97,SE,135,4.6,4.6,80,0.00,OVC,,0.00,180.0,WeatherDisplay:10.37,2013-05-09 13:48:00,
2013-05-09 08:53:00,70.0,63.5,29.97,SSE,158,5.8,5.8,80,0.00,OVC,,0.00,170.0,WeatherDisplay:10.37,2013-05-09 13:53:00,
2013-05-09 08:58:00,70.0,63.5,29.97,WSW,248,5.8,5.8,80,0.00,OVC,,0.00,170.0,WeatherDisplay:10.37,2013-05-09 13:58:00,
2013-05-09 09:03:00,70.0,63.5,29.97,SE,135,9.2,9.2,80,0.00,OVC,,0.00,140.0,WeatherDisplay:10.37,2013-05-09 14:03:00,
2013-05-09 09:09:00,70.0,63.5,29.98,SE,135,4.6,4.6,80,0.00,OVC,,0.00,140.0,WeatherDisplay:10.37,2013-05-09 14:09:00,
2013-05-09 09:14:00,70.0,63.5,29.98,SE,135,6.9,6.9,80,0.00,OVC,,0.00,120.0,WeatherDisplay:10.37,2013-05-09 14:14:00,
2013-05-09 09:19:00,70.0,63.5,29.98,ESE,112,6.9,6.9,80,0.00,OVC,,0.00,110.0,WeatherDisplay:10.37,2013-05-09 14:19:00,
2013-05-09 09:24:00,70.0,63.5,29.98,SW,225,6.9,6.9,80,0.00,OVC,,0.00,110.0,WeatherDisplay:10.37,2013-05-09 14:24:00,
2013-05-09 09:29:00,70.0,63.5,29.99,SSE,158,6.9,6.9,80,0.00,OVC,,0.00,100.0,WeatherDisplay:10.37,2013-05-09 14:29:00,
2013-05-09 09:35:00,70.0,63.5,29.99,SE,135,4.6,4.6,80,0.00,OVC,,0.00,100.0,WeatherDisplay:10.37,2013-05-09 14:35:00,
2013-05-09 09:40:00,70.0,63.5,29.99,NW,315,3.5,3.5,80,0.00,OVC,,0.00,100.0,WeatherDisplay:10.37,2013-05-09 14:40:00,
2013-05-09 09:45:00,70.7,64.6,29.99,SSW,202,5.8,5.8,81,0.00,OVC,,0.00,110.0,WeatherDisplay:10.37,2013-05-09 14:45:00,
2013-05-09 09:50:00,70.7,64.6,30.00,WSW,248,6.0,6.0,81,0.00,OVC,,0.00,100.0,WeatherDisplay:10.37,2013-05-09 14:50:00,
2013-05-09 09:56:00,70.9,65.1,30.00,South,180,6.9,6.9,82,0.00,OVC,,0.00,100.0,WeatherDisplay:10.37,2013-05-09 14:56:00,
2013-05-09 10:01:00,71.1,64.9,30.00,WNW,292,6.9,6.9,81,0.00,OVC,,0.00,100.0,WeatherDisplay:10.37,2013-05-09 15:01:00,
2013-05-09 10:06:00,70.9,65.1,30.00,WSW,248,4.6,4.6,82,0.00,OVC,,0.00,100.0,WeatherDisplay:10.37,2013-05-09 15:06:00,
2013-05-09 10:11:00,71.1,65.3,30.00,South,180,2.3,2.3,82,0.00,OVC,,0.00,100.0,WeatherDisplay:10.37,2013-05-09 15:11:00,
2013-05-09 10:16:00,70.9,65.1,30.00,SSE,158,4.6,4.6,82,0.00,OVC,,0.00,100.0,WeatherDisplay:10.37,2013-05-09 15:16:00,
2013-05-09 10:21:00,70.9,65.1,30.00,SE,135,4.6,4.6,82,0.00,OVC,,0.00,100.0,WeatherDisplay:10.37,2013-05-09 15:21:00,
2013-05-09 10:27:00,71.1,65.3,30.00,NNE,22,4.6,4.6,82,0.00,OVC,,0.00,100.0,WeatherDisplay:10.37,2013-05-09 15:27:00,
2013-05-09 10:32:00,71.1,65.6,29.98,SSE,158,5.8,5.8,83,0.00,OVC,,0.00,80.0,WeatherDisplay:10.37,2013-05-09 15:32:00,
2013-05-09 10:37:00,70.7,65.3,29.98,SE,135,8.1,8.1,83,0.00,OVC,,0.00,80.0,WeatherDisplay:10.37,2013-05-09 15:37:00,
2013-05-09 10:42:00,70.7,65.3,29.98,SE,135,6.9,6.9,83,0.00,OVC,,0.00,90.0,WeatherDisplay:10.37,2013-05-09 15:42:00,
2013-05-09 10:47:00,70.5,65.1,29.98,SE,135,4.6,4.6,83,0.00,OVC,,0.00,90.0,WeatherDisplay:10.37,2013-05-09 15:47:00,
2013-05-09 10:52:00,70.7,65.6,29.98,ESE,112,4.0,4.0,84,0.00,OVC,,0.00,90.0,WeatherDisplay:10.37,2013-05-09 15:52:00,
2013-05-09 10:58:00,70.7,65.6,29.98,SE,135,3.5,3.5,84,0.00,OVC,,0.00,100.0,WeatherDisplay:10.37,2013-05-09 15:58:00,
2013-05-09 11:03:00,70.5,65.4,29.98,East,90,0.0,2.4,84,0.00,OVC,,0.00,110.0,WeatherDisplay:10.37,2013-05-09 16:03:00,
2013-05-09 11:08:00,70.5,65.4,29.99,SSE,158,2.3,2.3,84,0.00,OVC,,0.00,110.0,WeatherDisplay:10.37,2013-05-09 16:08:00,
2013-05-09 11:13:00,70.3,65.6,29.99,South,180,4.6,4.6,85,0.00,OVC,,0.00,150.0,WeatherDisplay:10.37,2013-05-09 16:13:00,
2013-05-09 11:19:00,70.2,65.4,29.99,South,180,8.3,8.3,85,0.00,OVC,,0.00,160.0,WeatherDisplay:10.37,2013-05-09 16:19:00,
2013-05-09 11:24:00,70.2,65.4,29.99,SW,225,8.1,8.1,85,0.00,OVC,,0.00,170.0,WeatherDisplay:10.37,2013-05-09 16:24:00,
2013-05-09 11:29:00,70.3,65.6,29.98,South,180,4.8,4.9,85,0.00,OVC,,0.00,170.0,WeatherDisplay:10.37,2013-05-09 16:29:00,
2013-05-09 11:34:00,70.2,65.8,29.98,NNE,22,8.1,8.1,86,0.00,OVC,,0.00,160.0,WeatherDisplay:10.37,2013-05-09 16:34:00,
2013-05-09 11:39:00,70.0,65.6,29.98,SE,135,10.4,10.4,86,0.00,CLR,,0.00,160.0,WeatherDisplay:10.37,2013-05-09 16:39:00,
2013-05-09 11:44:00,70.2,65.8,29.98,SSE,158,6.9,6.9,86,0.00,CLR,,0.00,180.0,WeatherDisplay:10.37,2013-05-09 16:44:00,
2013-05-09 11:50:00,70.0,65.6,29.99,South,180,5.8,5.8,86,0.00,CLR,,0.00,180.0,WeatherDisplay:10.37,2013-05-09 16:50:00,
2013-05-09 11:55:00,70.0,65.6,29.99,SE,135,4.9,4.9,86,0.00,CLR,,0.00,180.0,WeatherDisplay:10.37,2013-05-09 16:55:00,
2013-05-09 12:00:00,70.0,65.6,29.99,SSE,158,4.6,4.6,86,0.00,CLR,,0.00,170.0,WeatherDisplay:10.37,2013-05-09 17:00:00,
2013-05-09 12:05:00,70.0,65.6,29.99,South,180,0.0,2.6,86,0.00,CLR,,0.00,170.0,WeatherDisplay:10.37,2013-05-09 17:05:00,
2013-05-09 12:10:00,70.0,65.6,30.00,South,180,0.0,2.6,86,0.00,CLR,,0.00,170.0,WeatherDisplay:10.37,2013-05-09 17:10:00,
2013-05-09 12:15:00,70.0,65.9,30.00,South,180,2.3,2.5,87,0.00,CLR,,0.00,180.0,WeatherDisplay:10.37,2013-05-09 17:15:00,
2013-05-09 12:21:00,70.0,65.9,30.00,South,180,0.0,2.5,87,0.00,CLR,,0.00,180.0,WeatherDisplay:10.37,2013-05-09 17:21:00,
2013-05-09 12:26:00,70.0,65.9,30.00,SE,135,3.7,3.7,87,0.00,CLR,,0.00,190.0,WeatherDisplay:10.37,2013-05-09 17:26:00,
2013-05-09 12:31:00,70.0,65.9,30.00,SSE,158,3.6,3.6,87,0.00,CLR,,0.00,200.0,WeatherDisplay:10.37,2013-05-09 17:31:00,
2013-05-09 12:36:00,70.0,65.9,30.00,SSE,158,2.3,2.3,87,0.00,CLR,,0.00,200.0,WeatherDisplay:10.37,2013-05-09 17:36:00,
2013-05-09 12:41:00,69.8,65.8,30.00,South,180,0.0,1.5,87,0.03,RA,,0.03,210.0,WeatherDisplay:10.37,2013-05-09 17:41:00,
2013-05-09 12:46:00,69.8,65.8,30.00,WSW,248,0.0,0.7,87,0.03,RA,,0.03,210.0,WeatherDisplay:10.37,2013-05-09 17:46:00,
2013-05-09 12:52:00,70.0,65.9,30.00,WNW,292,0.0,0.1,87,0.03,CLR,,0.03,220.0,WeatherDisplay:10.37,2013-05-09 17:52:00,
2013-05-09 12:57:00,70.0,65.9,30.00,WNW,292,0.0,0.0,87,0.06,RA,,0.06,220.0,WeatherDisplay:10.37,2013-05-09 17:57:00,
2013-05-09 13:02:00,69.6,65.9,30.00,SE,135,3.5,3.5,88,0.06,RA,,0.06,230.0,WeatherDisplay:10.37,2013-05-09 18:02:00,
2013-05-09 13:07:00,69.6,65.9,30.00,SSE,158,4.6,4.6,88,0.06,FEW,,0.06,230.0,WeatherDisplay:10.37,2013-05-09 18:07:00,
2013-05-09 13:12:00,69.6,65.9,30.03,SW,225,2.3,3.2,88,0.06,FEW,,0.06,240.0,WeatherDisplay:10.37,2013-05-09 18:12:00,
2013-05-09 13:18:00,69.4,66.1,30.03,SW,225,1.2,1.7,89,0.06,FEW,,0.06,250.0,WeatherDisplay:10.37,2013-05-09 18:18:00,
2013-05-09 13:23:00,69.4,66.1,30.03,WNW,292,0.0,0.9,89,0.06,FEW,,0.06,250.0,WeatherDisplay:10.37,2013-05-09 18:23:00,
2013-05-09 13:28:00,69.4,66.4,30.03,SSW,202,0.0,0.3,90,0.09,RA,,0.09,250.0,WeatherDisplay:10.37,2013-05-09 18:28:00,
2013-05-09 13:33:00,69.4,66.4,30.03,WNW,292,3.5,3.5,90,0.09,RA,,0.09,250.0,WeatherDisplay:10.37,2013-05-09 18:33:00,
2013-05-09 13:38:00,69.3,66.2,30.03,South,180,1.2,1.2,90,0.06,SCT,,0.09,250.0,WeatherDisplay:10.37,2013-05-09 18:38:00,
2013-05-09 13:43:00,69.3,66.2,30.03,WNW,292,1.2,1.2,90,0.09,RA,,0.13,250.0,WeatherDisplay:10.37,2013-05-09 18:43:00,
2013-05-09 13:48:00,69.3,66.2,30.03,WSW,248,1.2,1.2,90,0.09,RA,,0.13,250.0,WeatherDisplay:10.37,2013-05-09 18:48:00,
2013-05-09 13:53:00,69.1,66.0,30.03,SSE,158,0.0,0.7,90,0.09,SCT,,0.13,250.0,WeatherDisplay:10.37,2013-05-09 18:53:00,
2013-05-09 13:58:00,69.1,66.3,30.03,West,270,1.2,1.2,91,0.09,RA,,0.16,250.0,WeatherDisplay:10.37,2013-05-09 18:58:00,
2013-05-09 14:03:00,69.3,66.2,30.03,NW,315,2.3,2.3,90,0.09,RA,,0.16,250.0,WeatherDisplay:10.37,2013-05-09 19:03:00,
2013-05-09 14:09:00,69.3,66.2,30.04,North,0,1.2,1.2,90,0.09,BKN,,0.16,250.0,WeatherDisplay:10.37,2013-05-09 19:09:00,
2013-05-09 14:14:00,69.3,66.2,30.04,NW,315,1.2,1.2,90,0.13,RA,,0.19,250.0,WeatherDisplay:10.37,2013-05-09 19:14:00,
2013-05-09 14:19:00,69.1,66.0,30.04,WSW,248,0.0,0.5,90,0.13,RA,,0.19,250.0,WeatherDisplay:10.37,2013-05-09 19:19:00,
2013-05-09 14:24:00,68.7,65.7,30.04,NW,315,0.0,0.3,90,0.13,BKN,,0.19,240.0,WeatherDisplay:10.37,2013-05-09 19:24:00,
2013-05-09 14:29:00,68.7,65.3,30.01,NW,315,0.0,0.2,89,0.13,RA,,0.22,240.0,WeatherDisplay:10.37,2013-05-09 19:29:00,
2013-05-09 14:34:00,68.7,65.3,30.01,SW,225,0.0,0.1,89,0.13,RA,,0.22,220.0,WeatherDisplay:10.37,2013-05-09 19:34:00,
2013-05-09 14:39:00,68.5,65.2,30.01,South,180,0.0,0.1,89,0.13,OVC,,0.22,210.0,WeatherDisplay:10.37,2013-05-09 19:39:00,
2013-05-09 14:44:00,68.5,65.2,30.01,SE,135,3.3,3.3,89,0.13,RA,,0.25,210.0,WeatherDisplay:10.37,2013-05-09 19:44:00,
2013-05-09 14:49:00,68.5,65.2,30.01,ESE,112,2.3,2.3,89,0.13,RA,,0.25,210.0,WeatherDisplay:10.37,2013-05-09 19:49:00,
2013-05-09 14:54:00,68.2,64.5,30.01,SSE,158,0.0,1.2,88,0.13,OVC,,0.25,210.0,WeatherDisplay:10.37,2013-05-09 19:54:00,
2013-05-09 15:00:00,68.2,64.5,30.01,ESE,112,4.6,4.6,88,0.13,RA,,0.29,210.0,WeatherDisplay:10.37,2013-05-09 20:00:00,
2013-05-09 15:05:00,68.0,64.3,30.01,ESE,112,11.5,11.5,88,0.13,RA,,0.29,220.0,WeatherDisplay:10.37,2013-05-09 20:05:00,
2013-05-09 15:10:00,67.8,64.1,29.97,ESE,112,10.7,10.7,88,0.13,OVC,,0.32,230.0,WeatherDisplay:10.37,2013-05-09 20:10:00,
2013-05-09 15:15:00,67.8,64.1,29.97,SE,135,11.5,11.5,88,0.13,RA,,0.32,250.0,WeatherDisplay:10.37,2013-05-09 20:15:00,
2013-05-09 15:21:00,67.6,64.0,29.97,East,90,6.9,6.9,88,0.13,OVC,,0.32,270.0,WeatherDisplay:10.37,2013-05-09 20:21:00,
2013-05-09 15:26:00,67.8,64.1,29.97,East,90,4.6,5.3,88,0.13,BKN,,0.32,310.0,WeatherDisplay:10.37,2013-05-09 20:26:00,
2013-05-09 15:31:00,68.2,64.8,29.93,ENE,68,4.6,4.8,89,0.10,BKN,,0.32,340.0,WeatherDisplay:10.37,2013-05-09 20:31:00,
2013-05-09 15:36:00,68.0,64.6,29.93,ESE,112,6.9,6.9,89,0.10,BKN,,0.32,340.0,WeatherDisplay:10.37,2013-05-09 20:36:00,
2013-05-09 15:42:00,68.0,64.3,29.93,SE,135,3.5,4.3,88,0.07,OVC,,0.32,270.0,WeatherDisplay:10.37,2013-05-09 20:42:00,
2013-05-09 15:47:00,68.0,64.3,29.93,ESE,112,4.6,4.6,88,0.07,OVC,,0.32,190.0,WeatherDisplay:10.37,2013-05-09 20:47:00,
2013-05-09 15:52:00,68.0,64.3,29.91,ENE,68,2.3,2.3,88,0.07,OVC,,0.32,90.0,WeatherDisplay:10.37,2013-05-09 20:52:00,
2013-05-09 15:57:00,68.2,64.5,29.91,ESE,112,3.5,3.5,88,0.03,OVC,,0.32,90.0,WeatherDisplay:10.37,2013-05-09 20:57:00,
2013-05-09 16:02:00,68.2,64.2,29.91,East,90,2.3,2.3,87,0.03,OVC,,0.32,100.0,WeatherDisplay:10.37,2013-05-09 21:02:00,
2013-05-09 16:07:00,68.2,64.2,29.91,ENE,68,2.3,2.3,87,0.03,OVC,,0.32,100.0,WeatherDisplay:10.37,2013-05-09 21:07:00,
2013-05-09 16:13:00,68.4,64.0,29.91,SE,135,2.6,2.6,86,0.00,OVC,,0.32,30.0,WeatherDisplay:10.37,2013-05-09 21:13:00,
2013-05-09 16:18:00,68.4,64.0,29.91,NE,45,1.2,1.2,86,0.00,OVC,,0.32,30.0,WeatherDisplay:10.37,2013-05-09 21:18:00,
2013-05-09 16:23:00,68.5,64.2,29.91,East,90,2.3,2.3,86,0.00,OVC,,0.32,20.0,WeatherDisplay:10.37,2013-05-09 21:23:00,
2013-05-09 16:28:00,68.5,64.2,29.90,ESE,112,1.2,1.2,86,0.00,OVC,,0.32,20.0,WeatherDisplay:10.37,2013-05-09 21:28:00,
2013-05-09 16:33:00,68.5,64.2,29.90,NW,315,0.0,0.3,86,0.00,OVC,,0.32,10.0,WeatherDisplay:10.37,2013-05-09 21:33:00,
2013-05-09 16:38:00,68.5,64.5,29.90,NW,315,0.0,0.0,87,0.00,OVC,,0.32,10.0,WeatherDisplay:10.37,2013-05-09 21:38:00,
2013-05-09 16:43:00,68.7,64.7,29.90,NW,315,0.0,0.0,87,0.00,OVC,,0.32,10.0,WeatherDisplay:10.37,2013-05-09 21:43:00,
2013-05-09 16:49:00,68.7,64.7,29.92,WNW,292,0.0,0.0,87,0.00,OVC,,0.32,10.0,WeatherDisplay:10.37,2013-05-09 21:49:00,
2013-05-09 16:54:00,68.7,64.7,29.92,NNW,338,0.0,0.0,87,0.00,OVC,,0.32,10.0,WeatherDisplay:10.37,2013-05-09 21:54:00,
2013-05-09 16:59:00,68.7,64.7,29.92,NNE,22,0.0,0.0,87,0.00,OVC,,0.32,10.0,WeatherDisplay:10.37,2013-05-09 21:59:00,
2013-05-09 17:04:00,68.7,64.7,29.92,NNW,338,0.0,0.0,87,0.00,OVC,,0.32,10.0,WeatherDisplay:10.37,2013-05-09 22:04:00,
2013-05-09 17:09:00,68.7,64.7,29.91,West,270,1.2,1.2,87,0.00,OVC,,0.32,10.0,WeatherDisplay:10.37,2013-05-09 22:09:00,
2013-05-09 17:15:00,68.9,64.9,29.91,North,0,0.0,0.2,87,0.00,OVC,,0.32,10.0,WeatherDisplay:10.37,2013-05-09 22:15:00,
2013-05-09 17:20:00,68.9,64.9,29.91,NNW,338,0.0,0.1,87,0.00,OVC,,0.32,10.0,WeatherDisplay:10.37,2013-05-09 22:20:00,
2013-05-09 17:25:00,68.7,64.7,29.91,NW,315,0.0,0.0,87,0.00,OVC,,0.32,10.0,WeatherDisplay:10.37,2013-05-09 22:25:00,
2013-05-09 17:30:00,68.9,65.2,29.92,SSE,158,0.0,0.0,88,0.00,OVC,,0.32,10.0,WeatherDisplay:10.37,2013-05-09 22:30:00,
2013-05-09 17:35:00,69.1,65.4,29.92,ESE,112,0.0,0.0,88,0.00,OVC,,0.32,10.0,WeatherDisplay:10.37,2013-05-09 22:35:00,
2013-05-09 17:41:00,69.3,65.6,29.92,ESE,112,2.3,2.3,88,0.00,OVC,,0.32,10.0,WeatherDisplay:10.37,2013-05-09 22:41:00,
2013-05-09 17:46:00,69.3,65.2,29.92,NNW,338,0.0,0.9,87,0.00,OVC,,0.32,10.0,WeatherDisplay:10.37,2013-05-09 22:46:00,
2013-05-09 17:51:00,69.3,65.2,29.92,ENE,68,0.0,0.3,87,0.00,OVC,,0.32,10.0,WeatherDisplay:10.37,2013-05-09 22:51:00,
2013-05-09 17:56:00,69.4,65.1,29.92,ENE,68,1.2,1.2,86,0.00,OVC,,0.32,10.0,WeatherDisplay:10.37,2013-05-09 22:56:00,
2013-05-09 18:01:00,69.6,65.2,29.92,ENE,68,0.0,0.3,86,0.00,OVC,,0.32,10.0,WeatherDisplay:10.37,2013-05-09 23:01:00,
2013-05-09 18:07:00,70.0,65.3,29.92,ENE,68,2.3,2.3,85,0.00,OVC,,0.32,10.0,WeatherDisplay:10.37,2013-05-09 23:07:00,
2013-05-09 18:12:00,70.3,65.6,29.92,ESE,112,2.3,2.3,85,0.00,OVC,,0.32,0.0,WeatherDisplay:10.37,2013-05-09 23:12:00,
2013-05-09 18:17:00,70.2,65.1,29.92,SE,135,0.0,0.7,84,0.00,OVC,,0.32,0.0,WeatherDisplay:10.37,2013-05-09 23:17:00,
2013-05-09 18:22:00,70.0,64.9,29.92,SSE,158,1.2,1.2,84,0.00,OVC,,0.32,0.0,WeatherDisplay:10.37,2013-05-09 23:22:00,
2013-05-09 18:27:00,70.2,65.1,29.92,ENE,68,0.0,0.1,84,0.00,OVC,,0.32,0.0,WeatherDisplay:10.37,2013-05-09 23:27:00,
2013-05-09 18:33:00,70.2,65.4,29.90,South,180,0.0,0.0,85,0.00,OVC,,0.32,0.0,WeatherDisplay:10.37,2013-05-09 23:33:00,
2013-05-09 18:38:00,70.2,65.4,29.90,SE,135,2.3,2.3,85,0.00,OVC,,0.32,0.0,WeatherDisplay:10.37,2013-05-09 23:38:00,
2013-05-09 18:43:00,70.2,65.4,29.90,ESE,112,1.2,1.2,85,0.00,OVC,,0.32,0.0,WeatherDisplay:10.37,2013-05-09 23:43:00,
2013-05-09 18:48:00,70.0,64.9,29.91,SE,135,1.2,1.4,84,0.00,OVC,,0.32,0.0,WeatherDisplay:10.37,2013-05-09 23:48:00,
2013-05-09 18:53:00,70.0,64.9,29.91,SSE,158,1.2,1.2,84,0.00,OVC,,0.32,0.0,WeatherDisplay:10.37,2013-05-09 23:53:00,
2013-05-09 18:58:00,70.0,64.9,29.91,WSW,248,0.0,0.3,84,0.00,OVC,,0.32,0.0,WeatherDisplay:10.37,2013-05-09 23:58:00,
2013-05-09 19:03:00,69.8,64.7,29.91,SSE,158,2.3,2.3,84,0.00,OVC,,0.32,0.0,WeatherDisplay:10.37,2013-05-10 00:03:00,
2013-05-09 19:08:00,69.8,64.7,29.91,SSE,158,0.0,0.6,84,0.00,OVC,,0.32,0.0,WeatherDisplay:10.37,2013-05-10 00:08:00,
2013-05-09 19:14:00,70.0,65.3,29.91,SE,135,3.8,3.8,85,0.00,OVC,,0.32,0.0,WeatherDisplay:10.37,2013-05-10 00:14:00,
2013-05-09 19:19:00,70.0,64.9,29.91,WNW,292,2.3,2.3,84,0.00,OVC,,0.32,0.0,WeatherDisplay:10.37,2013-05-10 00:19:00,
2013-05-09 19:24:00,69.6,64.6,29.91,South,180,4.6,4.6,84,0.00,OVC,,0.32,0.0,WeatherDisplay:10.37,2013-05-10 00:24:00,
2013-05-09 19:29:00,69.6,64.6,29.89,SE,135,4.6,4.6,84,0.00,OVC,,0.32,0.0,WeatherDisplay:10.37,2013-05-10 00:29:00,
2013-05-09 19:34:00,69.4,64.4,29.89,SE,135,5.8,5.8,84,0.00,OVC,,0.32,0.0,WeatherDisplay:10.37,2013-05-10 00:34:00,
2013-05-09 19:39:00,69.4,64.4,29.89,SE,135,3.5,3.5,84,0.00,OVC,,0.32,0.0,WeatherDisplay:10.37,2013-05-10 00:39:00,
2013-05-09 19:45:00,69.4,64.4,29.89,ESE,112,4.6,4.6,84,0.00,OVC,,0.32,0.0,WeatherDisplay:10.37,2013-05-10 00:45:00,
2013-05-09 19:50:00,69.4,64.4,29.90,ESE,112,8.1,8.1,84,0.00,OVC,,0.32,0.0,WeatherDisplay:10.37,2013-05-10 00:50:00,
2013-05-09 19:55:00,69.4,64.4,29.90,ESE,112,3.9,4.1,84,0.00,OVC,,0.32,0.0,WeatherDisplay:10.37,2013-05-10 00:55:00,
2013-05-09 20:00:00,69.6,64.6,29.90,ESE,112,5.8,5.8,84,0.00,OVC,,0.32,0.0,WeatherDisplay:10.37,2013-05-10 01:00:00,
2013-05-09 20:06:00,69.3,64.2,29.90,ESE,112,6.9,6.9,84,0.00,OVC,,0.32,0.0,WeatherDisplay:10.37,2013-05-10 01:06:00,
2013-05-09 20:11:00,69.4,64.4,29.87,SE,135,9.2,9.2,84,0.00,OVC,,0.32,0.0,WeatherDisplay:10.37,2013-05-10 01:11:00,
2013-05-09 20:16:00,69.3,64.2,29.87,ESE,112,6.9,6.9,84,0.00,OVC,,0.32,10.0,WeatherDisplay:10.37,2013-05-10 01:16:00,
2013-05-09 20:21:00,69.1,64.4,29.87,SE,135,8.1,8.1,85,0.00,OVC,,0.32,10.0,WeatherDisplay:10.37,2013-05-10 01:21:00,
2013-05-09 20:26:00,68.9,64.2,29.87,SE,135,6.9,6.9,85,0.00,OVC,,0.32,10.0,WeatherDisplay:10.37,2013-05-10 01:26:00,
2013-05-09 20:32:00,68.9,64.2,29.88,ESE,112,4.6,4.6,85,0.00,OVC,,0.32,10.0,WeatherDisplay:10.37,2013-05-10 01:32:00,
2013-05-09 20:37:00,68.9,64.5,29.88,SE,135,5.8,5.8,86,0.00,OVC,,0.32,10.0,WeatherDisplay:10.37,2013-05-10 01:37:00,
2013-05-09 20:42:00,68.9,64.5,29.88,SE,135,3.5,3.5,86,0.00,OVC,,0.32,20.0,WeatherDisplay:10.37,2013-05-10 01:42:00,
2013-05-09 20:47:00,68.9,64.5,29.88,SSE,158,1.2,2.6,86,0.00,CLR,,0.32,20.0,WeatherDisplay:10.37,2013-05-10 01:47:00,
2013-05-09 20:52:00,68.7,64.4,29.90,SE,135,3.5,3.5,86,0.00,CLR,,0.32,30.0,WeatherDisplay:10.37,2013-05-10 01:52:00,
2013-05-09 20:57:00,68.7,64.4,29.90,SE,135,2.3,2.3,86,0.00,CLR,,0.32,20.0,WeatherDisplay:10.37,2013-05-10 01:57:00,
2013-05-09 21:02:00,68.9,64.5,29.90,ESE,112,3.5,3.5,86,0.00,CLR,,0.32,30.0,WeatherDisplay:10.37,2013-05-10 02:02:00,
2013-05-09 21:07:00,68.7,64.4,29.91,ESE,112,0.0,1.0,86,0.00,CLR,,0.32,30.0,WeatherDisplay:10.37,2013-05-10 02:07:00,
2013-05-09 21:13:00,68.7,64.7,29.91,SE,135,2.3,2.3,87,0.00,CLR,,0.32,40.0,WeatherDisplay:10.37,2013-05-10 02:13:00,
2013-05-09 21:18:00,68.7,64.7,29.91,ESE,112,2.3,2.3,87,0.00,CLR,,0.32,40.0,WeatherDisplay:10.37,2013-05-10 02:18:00,
2013-05-09 21:23:00,68.5,64.5,29.91,ENE,68,0.0,1.2,87,0.00,CLR,,0.32,40.0,WeatherDisplay:10.37,2013-05-10 02:23:00,
2013-05-09 21:28:00,68.5,64.5,29.92,East,90,2.3,2.3,87,0.00,CLR,,0.32,40.0,WeatherDisplay:10.37,2013-05-10 02:28:00,
2013-05-09 21:34:00,68.5,64.5,29.92,East,90,0.0,1.0,87,0.00,CLR,,0.32,0.0,WeatherDisplay:10.37,2013-05-10 02:34:00,
2013-05-09 21:39:00,68.4,64.3,29.92,ENE,68,1.2,1.2,87,0.00,CLR,,0.32,20.0,WeatherDisplay:10.37,2013-05-10 02:39:00,
2013-05-09 21:44:00,68.2,64.2,29.92,ENE,68,1.5,1.5,87,0.00,CLR,,0.32,0.0,WeatherDisplay:10.37,2013-05-10 02:44:00,
2013-05-09 21:49:00,68.2,64.2,29.94,ESE,112,1.3,1.3,87,0.00,CLR,,0.32,0.0,WeatherDisplay:10.37,2013-05-10 02:49:00,
2013-05-09 21:55:00,68.2,64.5,29.94,NE,45,1.2,1.2,88,0.00,CLR,,0.32,0.0,WeatherDisplay:10.37,2013-05-10 02:55:00,
2013-05-09 22:00:00,68.0,64.3,29.94,ESE,112,1.2,1.2,88,0.00,CLR,,0.32,20.0,WeatherDisplay:10.37,2013-05-10 03:00:00,
2013-05-09 22:05:00,68.0,64.3,29.94,ESE,112,1.2,1.2,88,0.00,CLR,,0.32,20.0,WeatherDisplay:10.37,2013-05-10 03:05:00,
2013-05-09 22:10:00,68.0,64.3,29.94,NE,45,0.0,0.5,88,0.00,CLR,,0.32,10.0,WeatherDisplay:10.37,2013-05-10 03:10:00,
2013-05-09 22:15:00,67.8,64.1,29.94,East,90,1.2,1.2,88,0.00,CLR,,0.32,10.0,WeatherDisplay:10.37,2013-05-10 03:15:00,
2013-05-09 22:21:00,67.8,64.1,29.94,NE,45,2.3,2.3,88,0.00,CLR,,0.32,0.0,WeatherDisplay:10.37,2013-05-10 03:21:00,
2013-05-09 22:26:00,67.8,64.1,29.94,East,90,2.3,2.3,88,0.00,CLR,,0.32,0.0,WeatherDisplay:10.37,2013-05-10 03:26:00,
2013-05-09 22:31:00,67.8,64.5,29.95,ENE,68,2.3,2.3,89,0.00,CLR,,0.32,0.0,WeatherDisplay:10.37,2013-05-10 03:31:00,
2013-05-09 22:36:00,67.8,64.5,29.95,NE,45,2.3,2.3,89,0.00,CLR,,0.32,0.0,WeatherDisplay:10.37,2013-05-10 03:36:00,
2013-05-09 22:41:00,67.6,64.3,29.95,East,90,1.2,1.2,89,0.00,CLR,,0.32,0.0,WeatherDisplay:10.37,2013-05-10 03:41:00,
2013-05-09 22:46:00,67.6,64.3,29.95,ENE,68,0.0,0.1,89,0.00,CLR,,0.32,0.0,WeatherDisplay:10.37,2013-05-10 03:46:00,
2013-05-09 22:51:00,67.8,64.5,29.97,NNE,22,0.0,0.3,89,0.00,CLR,,0.32,0.0,WeatherDisplay:10.37,2013-05-10 03:51:00,
2013-05-09 22:56:00,67.8,64.5,29.97,East,90,1.3,1.3,89,0.00,CLR,,0.32,0.0,WeatherDisplay:10.37,2013-05-10 03:56:00,
2013-05-09 23:01:00,67.8,64.5,29.97,East,90,1.2,1.2,89,0.00,CLR,,0.32,0.0,WeatherDisplay:10.37,2013-05-10 04:01:00,
2013-05-09 23:02:00,67.8,64.5,29.97,ENE,68,1.2,1.2,89,0.00,CLR,,0.32,0.0,WeatherDisplay:10.37,2013-05-10 04:02:00,
2013-05-09 23:03:00,67.8,64.5,29.97,ENE,68,1.2,1.2,89,0.00,CLR,,0.32,0.0,WeatherDisplay:10.37,2013-05-10 04:03:00,
2013-05-09 23:08:00,67.8,64.5,29.96,SE,135,0.0,0.3,89,0.00,CLR,,0.32,0.0,WeatherDisplay:10.37,2013-05-10 04:08:00,
2013-05-09 23:13:00,67.6,64.3,29.96,ESE,112,2.3,2.3,89,0.00,CLR,,0.32,0.0,WeatherDisplay:10.37,2013-05-10 04:13:00,
2013-05-09 23:18:00,67.5,64.1,29.96,East,90,0.0,0.3,89,0.00,CLR,,0.32,0.0,WeatherDisplay:10.37,2013-05-10 04:18:00,
2013-05-09 23:23:00,67.5,64.1,29.96,ENE,68,0.0,0.1,89,0.00,CLR,,0.32,0.0,WeatherDisplay:10.37,2013-05-10 04:23:00,
2013-05-09 23:28:00,67.3,63.9,29.98,ENE,68,0.0,0.0,89,0.00,CLR,,0.32,0.0,WeatherDisplay:10.37,2013-05-10 04:28:00,
2013-05-09 23:34:00,67.3,63.9,29.98,NNW,338,0.0,0.0,89,0.00,CLR,,0.32,0.0,WeatherDisplay:10.37,2013-05-10 04:34:00,
2013-05-09 23:39:00,67.3,63.9,29.98,NNW,338,0.0,0.0,89,0.00,CLR,,0.32,0.0,WeatherDisplay:10.37,2013-05-10 04:39:00,
2013-05-09 23:44:00,67.1,63.7,29.98,NE,45,0.0,0.0,89,0.00,CLR,,0.32,0.0,WeatherDisplay:10.37,2013-05-10 04:44:00,
2013-05-09 23:49:00,67.1,63.7,29.97,NW,315,0.0,0.0,89,0.00,CLR,,0.32,0.0,WeatherDisplay:10.37,2013-05-10 04:49:00,
2013-05-09 23:54:00,67.1,63.7,29.97,NNW,338,1.2,0.0,89,0.00,CLR,,0.32,0.0,WeatherDisplay:10.37,2013-05-10 04:54:00,